• Processing (Info)

  • MPEC 2013-T89 : 2013 TL127

    The following Minor Planet Electronic Circular may be linked-to from your own Web pages, but must not otherwise be redistributed electronically.

    A form allowing access to any MPEC is at the bottom of this page.


    Read MPEC 2013-T88 Read MPEC 2013-T90


    M.P.E.C. 2013-T89                                Issued 2013 Oct. 12, 01:11 UT
    
         The Minor Planet Electronic Circulars contain information on unusual
             minor planets and routine data on comets.  They are published
       on behalf of Commission 20 of the International Astronomical Union by the
              Minor Planet Center, Smithsonian Astrophysical Observatory,
                              Cambridge, MA 02138, U.S.A.
    
                 Prepared using the Tamkin Foundation Computer Network
    
                                  MPC@CFA.HARVARD.EDU
                URL http://www.minorplanetcenter.net/    ISSN 1523-6714
    
                                      2013 TL127
    
    Observations:
         K13TC7L* C2013 10 10.92758 02 18 16.37 +06 36 28.2          17.8 VrET089J75
         K13TC7L  C2013 10 10.92845 02 18 16.73 +06 36 44.9          17.9 VrET089J75
         K13TC7L  C2013 10 10.93127 02 18 17.57 +06 37 36.9          18.0 VrET089J75
         K13TC7L  C2013 10 10.93214 02 18 17.82 +06 37 52.4          18.1 VrET089J75
         K13TC7L  C2013 10 10.93497 02 18 18.67 +06 38 42.6          18.0 VrET089J75
         K13TC7L  C2013 10 10.93584 02 18 18.91 +06 38 57.2          17.9 VrET089J75
         K13TC7L  C2013 10 11.02970 02 18 43.29 +07 05 19.1          17.9 VrET089J75
         K13TC7L  C2013 10 11.03202 02 18 43.83 +07 05 56.1          17.9 VrET089J75
         K13TC7L KC2013 10 11.12097 02 19 31.03 +07 38 51.5          18.1  uET089I36
         K13TC7L KC2013 10 11.12264 02 19 31.35 +07 39 15.2          18.0  uET089I36
         K13TC7L KC2013 10 11.12765 02 19 32.38 +07 40 26.2          18.0  uET089I36
         K13TC7L KC2013 10 11.16029 02 19 50.62 +07 37 57.5          18.3 RqET089850
         K13TC7L KC2013 10 11.16769 02 19 52.32 +07 39 42.2          18.8 RqET089850
         K13TC7L KC2013 10 11.17516 02 19 53.94 +07 41 28.0          18.9 RqET089850
         K13TC7L KC2013 10 11.18257 02 19 55.48 +07 43 10.8          18.4 RqET089850
         K13TC7L KC2013 10 11.19006 02 19 57.01 +07 44 55.6          18.7 RqET089850
         K13TC7L KC2013 10 11.19659 02 19 58.29 +07 46 25.1          18.8 RqET089850
         K13TC7L KC2013 10 11.20817 02 20 00.51 +07 49 02.7          18.7 RqET089850
         K13TC7L KC2013 10 11.22799602 20 04.47 +07 52 54.2          18.9 VuET089H21
         K13TC7L KC2013 10 11.23061702 20 04.96 +07 53 29.2          18.9 VuET089H21
         K13TC7L KC2013 10 11.23283802 20 05.37 +07 53 58.8          18.9 VuET089H21
         K13TC7L KC2013 10 11.23586602 20 05.93 +07 54 38.7          18.8 VuET089H21
         K13TC7L KC2013 10 11.23838602 20 06.40 +07 55 11.7          18.7 VuET089H21
         K13TC7L KC2013 10 11.24098502 20 06.85 +07 55 45.8          18.9 VuET089H21
         K13TC7L  C2013 10 11.36051 02 20 36.47 +08 21 14.1          18.7 RcET089854
         K13TC7L |C2013 10 11.36071 02 20 33.92 +08 21 11.5                cET089H06
         K13TC7L |C2013 10 11.36166 02 20 34.05 +08 21 22.3                cET089H06
         K13TC7L  C2013 10 11.36246 02 20 36.59 +08 21 36.9          19.0 RcET089854
         K13TC7L |C2013 10 11.36261 02 20 34.19 +08 21 33.4          19.0 VcET089H06
         K13TC7L  C2013 10 11.36440 02 20 36.92 +08 22 00.2          18.7 RcET089854
         K13TC7L  C2013 10 11.36502 02 20 36.86 +08 22 06.0          18.7 VqET089703
         K13TC7L  C2013 10 11.36999 02 20 37.53 +08 23 03.1          18.9 VqET089703
         K13TC7L  C2013 10 11.37660 02 20 38.48 +08 24 17.5          18.5 VqET089703
         K13TC7L  C2013 10 11.38163 02 20 39.16 +08 25 17.1          18.7 VqET089703
         K13TC7L  C2013 10 11.57928 02 21 52.84 +08 59 39.1          19.9 RoET089300
         K13TC7L  C2013 10 11.58259 02 21 53.21 +09 00 11.2          19.3 RoET089300
         K13TC7L  C2013 10 11.58590 02 21 53.62 +09 00 43.2          19.8 RoET089300
         K13TC7L  C2013 10 11.58755 02 21 53.88 +09 01 00.1          19.4 RoET089300
         K13TC7L  C2013 10 11.59084 02 21 54.25 +09 01 32.5          19.8 RoET089300
         K13TC7L `C2013 10 11.69425602 22 01.64 +09 25 19.0          18.7 RqET089D90
         K13TC7L `C2013 10 11.69825102 22 02.04 +09 25 52.8          18.5 RqET089D90
         K13TC7L `C2013 10 11.70224402 22 02.42 +09 26 27.2          18.5 RqET089D90
         K13TC7L KC2013 10 11.94554 02 23 12.59 +09 50 33.9          19.1 RuET089958
         K13TC7L KC2013 10 11.96985 02 23 14.74 +09 53 35.8          19.1 RuET089958
    
    Observer details:
    300 Bisei Spaceguard Center--BATTeRS.  Observers A. Asami, K. Nishiyama.
        1.0-m f/3.0 reflector + CCD.
    703 Catalina Sky Survey.  Observer R. E. Hill.  Measurers A. Boattini,
        E. J. Christensen, A. R. Gibbs, A. D. Grauer, R. E. Hill, J. A. Johnson,
        R. A. Kowalski, S. M. Larson, F. C. Shelly.  0.68-m Schmidt + CCD.
    850 Cordell-Lorenz Observatory, Sewanee.  Observers D. T. Durig,
        Y. Zhang. K. L. Satterwhite.  0.3-m f/2.5 Schmidt-Cassegrain
        + 765x510 CCD.
    854 Sabino Canyon Observatory, Tucson.  Observer J. E. McGaha.  0.36-m f/10.0
        Schmidt-Cassegrain + CCD.
    958 Observatoire de Dax.  Observers P. Dupouy, J. B. de Vanssay.  Measurer
        P. Dupouy.  0.43-m f/2.7 reflector + CCD.
    D90 RAS Observatory, Moorook.  Observer K. Hills.  0.41-m f/9 Ritchey-Chretien
        + CCD.
    H06 iTelescope Observatory, Mayhill.  Observer H. Sato.  0.43-m f/6.8
        astrograph + CCD + f/4.5 focal reducer.
    H21 Astronomical Research Observatory, Westfield.  Observer R. Holmes.
        Measurers T. Linder, S. Foglia, L. Buzzi, T. Vorobjov.  0.61-m f/4.5
        astrograph + CCD.
    I36 Observatorio Los Campitos, Canuelas.  Observer C. Ambrosioni Prosen.
        0.28-m f/6.3 Schmidt-Cassegrain + CCD.
    J75 OAM Observatory, La Sagra.  Observers S. Sanchez, J. Nomen, M. Hurtado,
        J. A. Jaume, W. K. Y. Yeung, F. Serra, T. Valls, J. Hurtado.  0.45-m f/2.8
        reflector + CCD.
    
    Orbital elements:
    2013 TL127                                               Earth MOID = 0.0019 AU
    Epoch 2013 Nov. 4.0 TT = JDT 2456600.5                  MPC
    M  14.72332              (2000.0)            P               Q
    n   0.24704914     Peri.  292.34158     +0.84654751     +0.53230285
    a   2.5154392      Node    35.49748     -0.48626271     +0.77583208
    e   0.6542847      Incl.    0.32720     -0.21657770     +0.33873038
    P   3.99           H   26.6           G   0.15           U   6
    Residuals in seconds of arc
    131010 J75  0.7-  1.5-    131011 850  0.0   0.5+    131011 703  0.9-  0.3+
    131010 J75  0.7+  0.4-    131011 850  0.2-  0.1+    131011 703  1.0-  0.1+
    131010 J75  0.3+  1.1+    131011 850  0.0   0.1-    131011 703  0.3-  1.4-
    131010 J75  0.1+  1.1+    131011 H21  0.1-  0.8-    131011 703  0.5-  0.8+
    131010 J75  0.1-  0.8+    131011 H21  0.1-  0.5-    131011 300  0.0   1.2+
    131010 J75  0.4-  0.0     131011 H21  0.0   0.3-    131011 300  0.5-  0.5+
    131011 J75  0.2-  0.3-    131011 H21  0.0   0.3-    131011 300  0.4-  0.1-
    131011 J75  0.1-  0.3-    131011 H21  0.2+  0.4-    131011 300  0.6+  0.5+
    131011 I36  1.0+  0.8+    131011 H21  0.0   0.4-    131011 300  0.3+  0.6+
    131011 I36  0.4+  0.5+    131011 854  1.9+  0.2-    131011 D90  0.3-  0.1-
    131011 I36  0.0   0.5-    131011 H06  0.5+  0.2+    131011 D90  0.0   0.6-
    131011 850  0.8-  0.0     131011 H06  0.4+  0.0     131011 D90  0.1-  0.4-
    131011 850  0.0   0.3-    131011 854  0.3-  0.0     131011 958  0.5+  0.2+
    131011 850  0.0   0.3+    131011 H06  0.5+  0.1+    131011 958  0.4-  0.6-
    131011 850  0.1-  0.5-    131011 854  0.7+  0.8+
    
    Ephemeris:
    2013 TL127               a,e,i = 2.52, 0.65, 0                   q = 0.8696
    Date    TT    R. A. (2000) Decl.     Delta      r     Elong.  Phase     V
    2013 09 12    14 20 03.8 -14 38 06   0.2245  0.8736    48.4   120.6    27.9
    ...
    2013 09 27    14 31 57.2 -16 19 25   0.09807 0.9259    37.0   139.3    28.2
    ...
    2013 10 05    14 38 34.6 -19 11 08   0.03310 0.9721    31.7   147.3    27.1
    ...
    2013 10 11    02 18 26.8 +07 01 57   0.01551 1.0131   161.8    17.9    18.5
    2013 10 12    02 23 11.9 +10 00 40   0.02349 1.0204   161.4    18.2    19.4
    2013 10 13    02 25 31.9 +11 28 25   0.03152 1.0277   161.6    17.8    20.1
    ...
    2013 10 19    02 29 10.3 +14 00 59   0.08030 1.0742   166.1    12.9    22.0
    ...
    2013 10 27    02 29 02.4 +14 39 34   0.1477  1.1408   173.9     5.3    23.2
    ...
    2013 11 11    02 28 06.9 +14 55 52   0.2877  1.2751   171.0     7.0    24.9
    
    A. U. Tomatic                (C) Copyright 2013 MPC           M.P.E.C. 2013-T89
    

    Read MPEC 2013-T88 Read MPEC 2013-T90


    MPEC number:

    Enter an MPEC number in one of the following forms:

    • 1997-B01 (the full form)
    • J97B01 (the packed version of the full form)
    • B01 (the abbreviated form)